TimeCST,TemperatureF,Dew PointF,Humidity,Sea Level PressureIn,VisibilityMPH,Wind Direction,Wind SpeedMPH,Gust SpeedMPH,PrecipitationIn,Events,Conditions,WindDirDegrees,DateUTC
12:52 AM,26.1,18.0,71,30.05,8.0,WNW,12.7,-,N/A,,Overcast,300,2012-12-29 06:52:00
1:25 AM,25.0,18.0,75,30.02,7.0,WNW,9.2,-,N/A,,Overcast,290,2012-12-29 07:25:00
1:52 AM,25.0,18.0,75,30.07,7.0,WNW,11.5,-,N/A,,Overcast,290,2012-12-29 07:52:00
2:27 AM,23.0,15.1,72,30.05,8.0,NW,11.5,-,N/A,,Mostly Cloudy,310,2012-12-29 08:27:00
2:52 AM,21.9,15.1,75,30.10,7.0,WNW,8.1,-,N/A,,Mostly Cloudy,300,2012-12-29 08:52:00
3:52 AM,21.0,15.1,78,30.12,8.0,NW,9.2,-,N/A,,Overcast,310,2012-12-29 09:52:00
4:52 AM,21.9,15.1,75,30.14,8.0,NW,11.5,-,N/A,,Overcast,320,2012-12-29 10:52:00
5:52 AM,21.9,15.1,75,30.16,9.0,NW,11.5,-,N/A,,Overcast,310,2012-12-29 11:52:00
6:52 AM,23.0,15.1,72,30.19,9.0,NW,11.5,-,N/A,,Overcast,320,2012-12-29 12:52:00
7:52 AM,21.9,15.1,75,30.22,7.0,NNW,15.0,-,N/A,,Overcast,330,2012-12-29 13:52:00
8:52 AM,21.9,16.0,78,30.26,7.0,NW,12.7,-,N/A,,Overcast,310,2012-12-29 14:52:00
9:52 AM,21.9,15.1,75,30.29,7.0,NW,10.4,-,N/A,,Overcast,310,2012-12-29 15:52:00
10:52 AM,23.0,15.1,72,30.32,8.0,WNW,12.7,-,N/A,,Mostly Cloudy,300,2012-12-29 16:52:00
11:48 AM,24.8,15.8,69,30.25,8.0,WNW,12.7,19.6,N/A,,Scattered Clouds,290,2012-12-29 17:48:00
11:52 AM,26.1,16.0,66,30.30,8.0,WNW,11.5,19.6,N/A,,Partly Cloudy,290,2012-12-29 17:52:00
12:52 PM,28.9,16.0,58,30.28,10.0,WNW,10.4,-,N/A,,Clear,290,2012-12-29 18:52:00
1:52 PM,32.0,16.0,52,30.28,10.0,WNW,11.5,-,N/A,,Clear,300,2012-12-29 19:52:00
2:52 PM,33.1,16.0,50,30.27,10.0,WNW,6.9,-,N/A,,Clear,290,2012-12-29 20:52:00
3:52 PM,33.1,15.1,48,30.30,10.0,WNW,8.1,-,N/A,,Clear,300,2012-12-29 21:52:00
4:52 PM,30.9,16.0,54,30.33,10.0,West,9.2,-,N/A,,Clear,270,2012-12-29 22:52:00
5:52 PM,28.9,16.0,58,30.34,10.0,West,5.8,-,N/A,,Clear,260,2012-12-29 23:52:00
6:52 PM,24.8,15.8,69,30.32,10.0,WSW,6.9,-,N/A,,Clear,250,2012-12-30 00:52:00
7:52 PM,21.9,14.0,72,30.37,10.0,WSW,3.5,-,N/A,,Clear,240,2012-12-30 01:52:00
8:52 PM,21.9,14.0,72,30.37,10.0,South,3.5,-,N/A,,Clear,190,2012-12-30 02:52:00
9:52 PM,21.0,12.9,71,30.37,10.0,SSW,6.9,-,N/A,,Clear,200,2012-12-30 03:52:00
10:52 PM,21.0,14.0,74,30.38,10.0,SSW,8.1,-,N/A,,Clear,210,2012-12-30 04:52:00
11:52 PM,21.0,14.0,74,30.40,10.0,SSW,9.2,-,N/A,,Clear,210,2012-12-30 05:52:00